Weather History for Greenville, MS

Change the Weather History Date:

Friday, February 8, 2013

  Actual Average Record
Temperature  
Mean Temperature 49 °F 45 °F  
Max Temperature 60 °F 55 °F 82 °F (1937)
Min Temperature 37 °F 34 °F 11 °F (1933)
Degree Days  
Heating Degree Days 16 20  
Month to date heating degree days 127 170  
Since 1 July heating degree days 1643 1959  
Cooling Degree Days 0 0  
Month to date cooling degree days 0 0  
Year to date cooling degree days 10 1  
Moisture  
Dew Point 47 °F    
Average Humidity 78    
Maximum Humidity 93    
Minimum Humidity 63    
Precipitation  
Precipitation 0.00 in 0.19 in 1.36 in (1980)
Month to date precipitation 0.07 1.69  
Year to date precipitation 9.18 6.66  
Sea Level Pressure  
Sea Level Pressure 30.11 in    
Wind  
Wind Speed 14 mph (North)    
Max Wind Speed 24 mph    
Max Gust Speed 31 mph    
Visibility 9 miles    
Events      
T = Trace of Precipitation, MM = Missing Value Source: NWS Daily Summary

Daily Weather History Graph

Daily Weather History Graph

Search for Another Location

Airport:

Trip Planner

Search our weather history database for the weather conditions in past years. The results will help you decide how hot, cold, wet, or windy it might be!

Date:

Astronomy

Feb. 08, 2013 Rise Set
Actual Time 6:54 AM CST 5:42 PM CST
Civil Twilight 6:28 AM CST 6:08 PM CST
Nautical Twilight 5:59 AM CST 6:37 PM CST
Astronomical Twilight 5:30 AM CST 7:06 PM CST
Moon 5:20 AM CST (2/8) 4:17 PM CST (2/8)
Length of Visible Light 11h 39m
Length of Day
10h 48m
Waning Crescent, 3% of the Moon is Illuminated
Feb 8
Waning Crescent
Feb 10
New
Feb 17
First Quarter
Feb 25
Full
Mar 4
Last Quarter

Hourly Weather History & Observations

Time (CST) Temp. Windchill Dew Point Humidity Pressure Visibility Wind Dir Wind Speed Gust Speed Precip Events Conditions
12:53 AM 59.0 °F - 55.9 °F 90% 29.95 in 10.0 mi West 4.6 mph - N/A   Overcast
1:24 AM 60.8 °F - 57.2 °F 88% 29.93 in 10.0 mi West 4.6 mph - N/A   Overcast
1:53 AM 59.0 °F - 55.9 °F 90% 29.96 in 10.0 mi WSW 4.6 mph - N/A   Overcast
2:53 AM 57.0 °F - 54.0 °F 89% 29.96 in 10.0 mi West 4.6 mph - N/A   Mostly Cloudy
3:50 AM 57.2 °F - 55.4 °F 94% 29.94 in 10.0 mi WNW 6.9 mph - N/A   Mostly Cloudy
3:53 AM 57.9 °F - 55.0 °F 90% 29.96 in 10.0 mi WNW 6.9 mph - N/A   Mostly Cloudy
4:23 AM 57.2 °F - 55.4 °F 94% 29.95 in 10.0 mi NW 8.1 mph - N/A   Mostly Cloudy
4:32 AM 57.2 °F - 55.4 °F 94% 29.96 in 10.0 mi NW 9.2 mph - N/A   Overcast
4:53 AM 57.0 °F - 54.0 °F 89% 30.00 in 10.0 mi North 17.3 mph - N/A   Overcast
5:45 AM 53.6 °F - 51.8 °F 94% 30.01 in 10.0 mi North 20.7 mph 28.8 mph N/A   Overcast
5:53 AM 53.6 °F - 50.0 °F 88% 30.02 in 10.0 mi North 21.9 mph 28.8 mph N/A   Overcast
6:09 AM 53.6 °F - 48.2 °F 82% 30.03 in 10.0 mi North 24.2 mph 28.8 mph N/A   Overcast
6:46 AM 53.6 °F - 48.2 °F 82% 30.05 in 10.0 mi North 16.1 mph 23.0 mph N/A   Overcast
6:53 AM 53.1 °F - 48.9 °F 86% 30.08 in 10.0 mi North 20.7 mph 26.5 mph N/A   Overcast
7:00 AM 53.6 °F - 48.2 °F 82% 30.07 in 10.0 mi North 17.3 mph 27.6 mph N/A   Overcast
7:14 AM 51.8 °F - 48.2 °F 88% 30.08 in 10.0 mi North 19.6 mph 25.3 mph N/A   Overcast
7:53 AM 52.0 °F - 45.0 °F 77% 30.12 in 10.0 mi North 17.3 mph 29.9 mph N/A   Overcast
8:07 AM 51.8 °F - 46.4 °F 82% 30.12 in 10.0 mi North 17.3 mph 23.0 mph N/A   Overcast
8:33 AM 51.8 °F - 46.4 °F 82% 30.13 in 10.0 mi North 18.4 mph 24.2 mph N/A   Overcast
8:53 AM 51.1 °F - 44.1 °F 77% 30.17 in 10.0 mi North 20.7 mph 28.8 mph N/A   Overcast
9:09 AM 51.8 °F - 44.6 °F 76% 30.16 in 10.0 mi North 17.3 mph 26.5 mph N/A   Overcast
9:19 AM 51.8 °F - 44.6 °F 76% 30.16 in 10.0 mi North 19.6 mph - N/A   Overcast
3:53 PM 52.0 °F - 39.9 °F 63% 30.23 in 10.0 mi NNE 18.4 mph - N/A   Clear
4:53 PM 50.0 °F - 39.0 °F 66% 30.24 in 10.0 mi NNE 16.1 mph - N/A   Clear
5:53 PM 46.0 °F 40.6 °F 37.9 °F 73% 30.26 in 9.0 mi NNE 11.5 mph - N/A   Clear
6:53 PM 44.1 °F 38.1 °F 37.9 °F 79% 30.28 in 8.0 mi NNE 11.5 mph - N/A   Clear
7:53 PM 43.0 °F 36.8 °F 36.0 °F 76% 30.29 in 8.0 mi NNE 11.5 mph - N/A   Clear
8:53 PM 41.0 °F 33.9 °F 36.0 °F 82% 30.30 in 7.0 mi NNE 12.7 mph - N/A   Clear
9:53 PM 39.0 °F 32.3 °F 35.1 °F 86% 30.30 in 5.0 mi NNE 10.4 mph - N/A   Clear
10:53 PM 37.9 °F 32.1 °F 35.1 °F 89% 30.30 in 5.0 mi NNE 8.1 mph - N/A   Clear
11:53 PM 37.0 °F 31.6 °F 35.1 °F 93% 30.29 in 4.0 mi NE 6.9 mph - N/A   Clear